Location: ??????
(36.0418°N, 43.6351°E)
Time: 21:19:28
(UTC+00:00)

Lacrosse 4 Rocket - Pass Details

Date: 07 March 2021
Orbit: 537 x 620 km, 68.0° (Epoch: 18 April)

Event Time Altitude Azimuth Distance (km) Brightness Sun altitude
Exits shadow 00:38:59 17° 34° (NNE) 1,572 4.1 -34.4°
Maximum altitude 00:40:09 18° 54° (NE) 1,490 4.1 -34.2°
Drops below altitude 10° 00:43:13 10° 98° (E) 1,946 4.8 -33.6°
Sets 00:46:02 0° 117° (ESE) 2,829 5.5 -33.1°
